Zurück zum Katalog

STARLINK-3646

AktivKommunikationVLEO
NORAD 51785·PAYLOAD·🇺🇸 United States

Gestartet Feb 25, 2022 von Vandenberg Space Force Base

Loading…

Nächste Überflüge (nächste 24 Stunden)

TLE

AktuellSource: CelesTrak SupGP

Epoche: Sep 15, 2026, 01:57 UTC

1 51785C 22017T   26258.08173611 -.00020232  00000+0 -65071-3 0  2588
2 51785  53.1570 194.6377 0001352  86.4122  40.2662 15.31707128    16

Verfolge STARLINK-3646 in Echtzeit mit AllMySat

Download on the App Store